User: anonymous
Location: Unspecified
(0.0000°N, 0.0000°E)
Time: 00:08:35
(UTC+02:00)
Language:

ARIANE DEB (SPELDA) - Orbit

View from above orbital plane
View from above orbital plane
View from above satellite
View from above satellite

Ground track
Ground track

The orbit data is extracted from the following two-line orbital elements,

1 27402U 02015D   14112.64078642  .00000827  00000-0  93417-3 0  9803
2 27402 003.5808 283.8257 7105058 007.5175 333.2513 02.45430159105556
Epoch (UTC): 22 April 2014 15:22:43
Eccentricity: 0.7105058
inclination: 3.5808°
perigee height: 342 km
apogee height: 33332 km
right ascension of ascending node: 283.8257°
argument of perigee: 7.5175°
revolutions per day: 2.45430159
mean anomaly at epoch: 333.2513°
orbit number at epoch: 10555

The dashed part of the orbit path shows where the satellite is in the earth's shadow,  

DLR